N5KR Weather Reports


Display with metric or nautical units.
time (UTC)temp
F
wind
direction
speed
MPH
gust
MPH
rain 1hr
in
rain 24hr
in
rain mn
in
humidity
%
barometer
mb
20260506231005 62 11 3.0 10.0 0.00 0.13 0.13 74 1014.3
20260506230506 62 64 5.0 9.0 0.00 0.13 0.13 74 1014.3
20260506225005 62 27 3.0 10.0 0.00 0.13 0.13 74 1014.4
20260506224506 62 56 4.0 13.0 0.00 0.13 0.13 74 1014.2
20260506223505 62 39 4.0 12.0 0.00 0.13 0.13 74 1014.2
20260506223005 62 4 5.0 14.0 0.00 0.13 0.13 74 1014.1
20260506222506 61 69 2.0 8.0 0.00 0.13 0.13 76 1014.2
20260506222005 61 45 3.0 9.0 0.00 0.13 0.13 74 1014.4
20260506221005 61 29 5.0 10.0 0.00 0.13 0.13 73 1014.0
20260506220505 61 22 5.0 14.0 0.00 0.13 0.13 74 1013.9
20260506220005 61 59 3.0 7.0 0.00 0.13 0.13 73 1013.9
20260506215506 61 335 3.0 8.0 0.00 0.13 0.13 74 1013.9
20260506215006 61 0 5.0 12.0 0.00 0.13 0.13 73 1013.8
20260506214506 61 20 5.0 9.0 0.00 0.13 0.13 73 1013.9
20260506214005 61 13 5.0 13.0 0.00 0.13 0.13 73 1014.0
20260506213005 62 51 3.0 10.0 0.00 0.13 0.13 72 1014.1
20260506212505 62 343 6.0 12.0 0.00 0.13 0.13 72 1014.1
20260506212005 61 47 5.0 12.0 0.00 0.13 0.13 73 1014.1
20260506211005 61 41 5.0 13.0 0.00 0.13 0.13 74 1014.0
20260506210505 61 2 2.0 9.0 0.00 0.13 0.13 73 1014.1
20260506205506 61 331 3.0 9.0 0.00 0.13 0.13 72 1014.0
20260506205005 62 6 6.0 10.0 0.00 0.13 0.13 71 1014.2
20260506204506 62 358 2.0 9.0 0.00 0.13 0.13 74 1014.3
20260506204005 61 43 4.0 8.0 0.00 0.13 0.13 75 1014.4
20260506203505 60 14 2.0 10.0 0.00 0.13 0.13 74 1014.6
20260506203005 60 9 3.0 10.0 0.00 0.13 0.13 74 1014.4
20260506202505 60 351 3.0 7.0 0.00 0.13 0.13 75 1014.5
20260506202005 60 51 3.0 10.0 0.00 0.13 0.13 75 1014.5
20260506201505 60 329 5.0 9.0 0.00 0.13 0.13 75 1014.4
20260506201005 60 5 5.0 10.0 0.00 0.13 0.13 74 1014.5
20260506200505 60 345 5.0 10.0 0.00 0.13 0.13 74 1014.5
20260506200005 60 15 2.0 8.0 0.00 0.13 0.13 76 1014.7
20260506195505 59 345 3.0 7.0 0.00 0.13 0.13 75 1014.9
20260506195005 59 340 3.0 8.0 0.00 0.13 0.13 76 1015.1
20260506194505 58 350 3.0 8.0 0.00 0.13 0.13 77 1015.2
20260506194005 58 7 3.0 9.0 0.00 0.13 0.13 77 1015.2
20260506193505 58 342 4.0 7.0 0.00 0.13 0.13 78 1015.3
20260506193006 58 346 0.0 6.0 0.00 0.13 0.13 78 1015.2
20260506192505 58 20 2.0 7.0 0.00 0.13 0.13 77 1015.0
20260506192005 58 59 1.0 6.0 0.00 0.13 0.13 78 1015.1
20260506191505 58 55 2.0 9.0 0.00 0.13 0.13 78 1015.2
20260506191005 57 31 3.0 9.0 0.00 0.13 0.13 78 1015.4
20260506190006 57 5 4.0 7.0 0.00 0.13 0.13 78 1015.2
20260506185505 58 4 5.0 10.0 0.00 0.13 0.13 77 1014.9
20260506185005 57 22 5.0 10.0 0.00 0.13 0.13 78 1014.7
20260506184505 58 21 2.0 9.0 0.00 0.13 0.13 79 1014.4
20260506184004 57 42 2.0 6.0 0.00 0.13 0.13 80 1014.2
20260506183005 57 0 3.0 12.0 0.00 0.13 0.13 81 1013.8
20260506182505 57 48 6.0 13.0 0.00 0.13 0.13 80 1013.7
20260506181505 57 37 7.0 12.0 0.00 0.13 0.13 79 1013.8
20260506181004 58 20 6.0 13.0 0.00 0.13 0.13 81 1013.7
20260506180505 57 61 6.0 13.0 0.00 0.13 0.13 82 1013.9
20260506180006 56 9 3.0 12.0 0.00 0.13 0.13 83 1014.2
20260506175505 56 83 4.0 12.0 0.00 0.13 0.13 84 1014.3
20260506175005 55 62 5.0 14.0 0.00 0.13 0.13 84 1014.5
20260506174505 55 32 7.0 13.0 0.00 0.13 0.13 84 1014.5
20260506174005 55 18 2.0 9.0 0.00 0.13 0.13 85 1014.1
20260506173505 55 64 2.0 8.0 0.00 0.13 0.13 85 1014.1
20260506173005 55 53 4.0 13.0 0.00 0.13 0.13 85 1014.2
20260506172505 55 56 5.0 15.0 0.00 0.13 0.13 86 1014.2
20260506172005 54 38 4.0 13.0 0.00 0.13 0.13 87 1014.3
20260506171505 54 14 6.0 17.0 0.00 0.13 0.13 86 1014.7
20260506171005 54 10 6.0 18.0 0.00 0.13 0.13 87 1014.4
20260506170505 54 13 6.0 14.0 0.00 0.13 0.13 87 1014.4
20260506170005 54 27 3.0 12.0 0.00 0.13 0.13 88 1014.7
20260506165504 54 10 3.0 14.0 0.00 0.13 0.13 88 1014.8
20260506165005 54 28 6.0 14.0 0.00 0.13 0.13 87 1015.1
20260506164504 54 9 6.0 13.0 0.01 0.13 0.13 88 1015.4
20260506164005 54 9 6.0 10.0 0.01 0.13 0.13 87 1015.7
20260506163505 54 18 6.0 12.0 0.05 0.13 0.13 87 1015.8
20260506163004 54 3 3.0 7.0 0.13 0.13 0.13 87 1016.0
20260506162505 54 67 4.0 9.0 0.13 0.13 0.13 87 1015.8
20260506162004 54 91 5.0 13.0 0.13 0.13 0.13 87 1015.4
20260506161505 54 85 2.0 10.0 0.13 0.13 0.13 88 1015.0
20260506161005 54 102 3.0 12.0 0.13 0.13 0.13 89 1014.7
20260506160505 54 84 5.0 12.0 0.13 0.13 0.13 89 1013.6
20260506160004 54 34 3.0 13.0 0.13 0.13 0.13 90 1013.7
20260506155504 54 18 3.0 12.0 0.13 0.13 0.13 89 1014.2
20260506154504 53 36 3.0 12.0 0.11 0.11 0.11 88 1014.8
20260506154004 53 24 2.0 10.0 0.11 0.11 0.11 87 1016.3
20260506153004 54 4 3.0 8.0 0.00 0.00 0.00 83 1017.4
20260506152505 54 290 1.0 6.0 0.00 0.00 0.00 82 1016.6
20260506152004 54 15 1.0 10.0 0.00 0.00 0.00 80 1016.2
20260506151504 54 323 6.0 13.0 0.00 0.00 0.00 80 1015.4
20260506150005 54 5 6.0 13.0 0.00 0.00 0.00 81 1015.2
20260506145505 54 357 4.0 13.0 0.00 0.00 0.00 81 1015.3
20260506145005 54 16 3.0 12.0 0.00 0.00 0.00 81 1014.8
20260506144004 54 24 5.0 10.0 0.00 0.00 0.00 81 1015.3
20260506143504 54 356 4.0 12.0 0.00 0.00 0.00 81 1015.4
20260506143005 54 4 6.0 13.0 0.00 0.00 0.00 80 1015.3
20260506142505 54 0 7.0 13.0 0.00 0.00 0.00 81 1015.1
20260506142004 54 352 5.0 13.0 0.00 0.00 0.00 82 1014.9
20260506141005 53 31 3.0 10.0 0.00 0.00 0.00 83 1014.6
20260506140505 53 7 5.0 10.0 0.00 0.00 0.00 82 1014.4
20260506135505 53 355 4.0 12.0 0.00 0.00 0.00 82 1014.5
20260506135005 53 23 7.0 13.0 0.00 0.00 0.00 82 1014.3
20260506133505 53 344 3.0 10.0 0.00 0.00 0.00 82 1014.0
20260506133004 53 7 4.0 15.0 0.00 0.00 0.00 82 1014.2
20260506132505 53 337 4.0 15.0 0.00 0.00 0.00 81 1013.9
20260506132005 53 350 5.0 13.0 0.00 0.00 0.00 81 1013.7
20260506131505 53 348 6.0 14.0 0.00 0.00 0.00 80 1013.6
20260506131004 53 6 9.0 14.0 0.00 0.00 0.00 80 1013.8
20260506130505 53 4 5.0 13.0 0.00 0.00 0.00 80 1013.6
20260506130005 53 3 5.0 14.0 0.00 0.00 0.00 80 1013.9
20260506124504 54 354 4.0 12.0 0.00 0.00 0.00 80 1013.6
20260506124005 54 353 4.0 10.0 0.00 0.00 0.00 79 1013.5
20260506123505 54 25 5.0 15.0 0.00 0.00 0.00 79 1013.5
20260506123004 54 348 6.0 13.0 0.00 0.00 0.00 80 1013.6
20260506122504 54 351 5.0 10.0 0.00 0.00 0.00 80 1013.4
20260506122004 54 8 6.0 14.0 0.00 0.00 0.00 79 1013.3
20260506121505 54 355 6.0 14.0 0.00 0.00 0.00 79 1013.3
20260506121004 54 354 7.0 14.0 0.00 0.00 0.00 79 1013.4
20260506120504 54 14 3.0 12.0 0.00 0.00 0.00 79 1013.4
20260506120005 54 342 3.0 9.0 0.00 0.00 0.00 79 1013.4
20260506115504 54 348 7.0 13.0 0.00 0.00 0.00 79 1012.9
20260506115004 54 1 8.0 14.0 0.00 0.00 0.00 79 1013.0
20260506114504 54 17 6.0 15.0 0.00 0.00 0.00 79 1013.2
20260506113004 54 18 9.0 18.0 0.00 0.00 0.00 77 1012.5
20260506112504 55 358 5.0 16.0 0.00 0.00 0.00 76 1012.6
20260506112004 55 357 7.0 13.0 0.00 0.00 0.00 76 1012.4
20260506111004 55 345 7.0 13.0 0.00 0.00 0.00 75 1012.2
20260506110004 55 8 6.0 15.0 0.00 0.00 0.00 75 1012.1
20260506105504 55 1 7.0 17.0 0.00 0.00 0.00 74 1012.0
20260506105004 55 355 7.0 13.0 0.00 0.00 0.00 74 1011.8
20260506104504 56 7 6.0 17.0 0.00 0.00 0.00 74 1011.8
20260506104005 56 359 7.0 17.0 0.00 0.00 0.00 74 1011.8
20260506103504 56 11 8.0 13.0 0.00 0.00 0.00 74 1011.7
20260506103004 56 11 6.0 17.0 0.00 0.00 0.00 74 1011.4
20260506102504 56 355 3.0 10.0 0.00 0.00 0.00 73 1011.3
20260506102004 56 22 5.0 13.0 0.00 0.00 0.00 73 1011.3
20260506101504 56 9 9.0 15.0 0.00 0.00 0.00 72 1011.3
20260506101004 56 346 5.0 13.0 0.00 0.00 0.00 73 1011.1
20260506100504 56 355 6.0 12.0 0.00 0.00 0.00 73 1011.2
20260506094504 57 3 3.0 9.0 0.00 0.00 0.00 73 1011.0
20260506094004 57 6 4.0 12.0 0.00 0.00 0.00 73 1011.0
20260506093504 57 5 3.0 10.0 0.00 0.00 0.00 73 1010.9
20260506093004 57 347 5.0 12.0 0.00 0.00 0.00 73 1010.9
20260506092004 57 347 4.0 10.0 0.00 0.00 0.00 73 1010.9
20260506091504 58 347 2.0 9.0 0.00 0.00 0.00 73 1010.8
20260506091004 57 6 5.0 10.0 0.00 0.00 0.00 73 1010.8
20260506090503 57 4 6.0 12.0 0.00 0.00 0.00 73 1010.8
20260506090004 58 348 5.0 12.0 0.00 0.00 0.00 73 1010.8
20260506085503 58 23 6.0 10.0 0.00 0.00 0.00 73 1010.8
20260506085004 58 345 6.0 12.0 0.00 0.00 0.00 73 1010.7
20260506084004 58 335 4.0 12.0 0.00 0.00 0.00 73 1010.7
20260506083504 58 17 2.0 9.0 0.00 0.00 0.00 73 1010.6
20260506083004 58 7 2.0 8.0 0.00 0.00 0.00 73 1010.7
20260506082504 58 8 3.0 12.0 0.00 0.00 0.00 74 1010.7
20260506081503 58 344 2.0 9.0 0.00 0.00 0.00 74 1010.5
20260506081004 58 29 3.0 9.0 0.00 0.00 0.00 74 1010.2
20260506080504 58 83 3.0 9.0 0.00 0.00 0.00 74 1010.1
20260506073507 58 351 4.0 9.0 0.00 0.00 0.00 74 1010.2
20260506073007 58 18 4.0 10.0 0.00 0.00 0.00 74 1010.2
20260506072507 58 51 2.0 7.0 0.00 0.00 0.00 74 1010.3
20260506071507 58 29 4.0 9.0 0.00 0.00 0.00 74 1010.4
20260506062506 60 0 6.0 12.0 0.00 0.00 0.00 74 1010.3
20260506062007 60 0 5.0 14.0 0.00 0.00 0.00 75 1010.3
20260506061507 60 9 6.0 13.0 0.00 0.00 0.00 75 1010.3
20260506061006 60 6 6.0 13.0 0.00 0.00 0.00 75 1010.2
20260506060507 60 0 6.0 13.0 0.00 0.00 0.00 75 1010.3
20260506051007 61 347 6.0 14.0 0.00 0.00 0.00 76 1010.1
20260506050507 61 15 4.0 13.0 0.00 0.00 0.00 76 1010.0
20260506045006 62 357 3.0 13.0 0.00 0.00 0.00 75 1010.1
20260506044506 62 355 7.0 14.0 0.00 0.00 0.00 75 1009.9
20260506044007 62 348 7.0 13.0 0.00 0.00 0.00 75 1010.1
20260506043506 62 347 5.0 12.0 0.00 0.00 0.00 75 1010.0
20260506043006 62 12 9.0 15.0 0.00 0.00 0.00 75 1009.8
20260506042507 63 8 9.0 18.0 0.00 0.00 0.00 75 1009.9
20260506042006 63 356 7.0 14.0 0.00 0.00 0.00 76 1009.8
20260506041507 63 4 7.0 13.0 0.00 0.00 0.00 76 1009.7
20260506041006 63 355 7.0 13.0 0.00 0.00 0.00 76 1009.6
20260506040506 64 359 7.0 13.0 0.00 0.00 0.00 75 1009.5
20260506040006 64 4 6.0 13.0 0.00 0.00 0.00 75 1009.4
20260506035506 64 31 7.0 13.0 0.00 0.00 0.00 75 1009.4
20260506034506 65 24 3.0 9.0 0.00 0.00 0.00 76 1009.3
20260506034007 65 31 5.0 12.0 0.00 0.00 0.00 75 1009.3
20260506033506 65 4 6.0 14.0 0.00 0.00 0.00 75 1009.3
20260506033006 65 338 7.0 15.0 0.00 0.00 0.00 74 1009.2
20260506032506 66 357 7.0 17.0 0.00 0.00 0.00 74 1009.2
20260506032006 66 359 5.0 13.0 0.00 0.00 0.00 74 1009.0
20260506031506 67 12 7.0 15.0 0.00 0.00 0.00 74 1009.0
20260506030506 67 346 6.0 12.0 0.00 0.00 0.00 74 1008.6
20260506030006 68 340 6.0 15.0 0.00 0.00 0.00 73 1008.8
20260506025006 69 347 7.0 14.0 0.00 0.00 0.00 73 1008.5
20260506024506 69 346 6.0 13.0 0.00 0.00 0.00 72 1008.3
20260506024006 69 345 3.0 10.0 0.00 0.00 0.00 73 1008.1
20260506023506 69 350 7.0 13.0 0.00 0.00 0.00 72 1007.9
20260506022506 70 6 6.0 13.0 0.00 0.00 0.00 73 1007.5
20260506022006 70 6 4.0 18.0 0.00 0.00 0.00 72 1007.7
20260506021505 70 18 6.0 18.0 0.00 0.00 0.00 72 1007.5
20260506021006 71 353 3.0 13.0 0.00 0.00 0.00 72 1007.3
20260506020506 71 348 5.0 13.0 0.00 0.00 0.00 71 1007.0
20260506020006 71 353 3.0 10.0 0.00 0.00 0.00 71 1007.1
20260506015506 72 1 6.0 14.0 0.00 0.00 0.00 70 1007.2
20260506015006 73 353 3.0 10.0 0.00 0.00 0.00 69 1007.0
20260506014506 73 348 5.0 12.0 0.00 0.00 0.00 69 1007.0
20260506014005 73 350 2.0 7.0 0.00 0.00 0.00 68 1006.9
20260506013006 73 15 4.0 12.0 0.00 0.00 0.00 68 1007.0
20260506012006 73 22 3.0 6.0 0.00 0.00 0.00 67 1006.7
20260506011506 73 56 3.0 10.0 0.00 0.00 0.00 67 1006.6
20260506011005 74 351 6.0 13.0 0.00 0.00 0.00 67 1006.4
20260506010006 74 340 6.0 13.0 0.00 0.00 0.00 67 1006.2
20260506005506 74 336 6.0 12.0 0.00 0.00 0.00 67 1005.9
20260506005006 74 16 3.0 9.0 0.00 0.00 0.00 67 1006.2
20260506004505 74 345 6.0 12.0 0.00 0.00 0.00 67 1006.4
20260506004006 74 350 6.0 14.0 0.00 0.00 0.00 66 1006.3
20260506003506 75 15 6.0 13.0 0.00 0.00 0.00 66 1006.3
20260506003005 75 10 4.0 13.0 0.00 0.00 0.00 66 1006.2
20260506002506 75 4 5.0 10.0 0.00 0.00 0.00 66 1006.1
20260506002006 75 10 7.0 14.0 0.00 0.00 0.00 65 1006.0
20260506001505 76 357 7.0 14.0 0.00 0.00 0.00 65 1006.1
20260506001005 77 6 9.0 13.0 0.00 0.00 0.00 64 1005.9
20260506000505 78 350 7.0 16.0 0.00 0.00 0.00 63 1005.5
20260506000006 78 342 7.0 15.0 0.00 0.00 0.00 62 1005.2
20260505235506 79 353 5.0 13.0 0.00 0.00 0.00 62 1005.2
20260505234506 80 302 3.0 13.0 0.00 0.00 0.00 61 1005.4
20260505234005 80 335 12.0 17.0 0.00 0.00 0.00 60 1005.4
20260505233505 81 332 6.0 17.0 0.00 0.00 0.00 59 1005.4
20260505233006 81 348 9.0 16.0 0.00 0.00 0.00 59 1005.3
20260505232505 82 336 7.0 16.0 0.00 0.00 0.00 58 1005.1
20260505232006 84 338 10.0 17.0 0.00 0.00 0.00 56 1004.9
20260505231506 84 333 5.0 14.0 0.00 0.00 0.00 53 1004.8